Auburn, IN

8:06 PM EST on February 07, 2016 (GMT -0500)
Auburn

Weather History for KGWB - May, 2013

Change the Weather History Date:

Sunday, May 12, 2013

  Actual Average (KFWA) Record (KFWA)
Temperature  
Mean Temperature 42 °F 59 °F  
Max Temperature 50 °F 71 °F 88 °F (2011)
Min Temperature 35 °F 48 °F 31 °F (1946)
Degree Days  
Heating Degree Days 22 7  
Month to date heating degree days 100  
Since 1 July heating degree days 5982  
Cooling Degree Days 0 1  
Month to date cooling degree days 8  
Year to date cooling degree days 16  
Moisture  
Dew Point 29 °F    
Average Humidity 62    
Maximum Humidity 87    
Minimum Humidity 37    
Precipitation  
Precipitation 0.00 in 0.13 in 1.05 in (1914)
Month to date precipitation 1.39  
Year to date precipitation 11.92  
Snow  
Snow 0.00 in 0.00 in 0.00 in (2002)
Month to date snowfall 0.0  
Since 1 July snowfall 33.5  
Snow Depth -    
Sea Level Pressure  
Sea Level Pressure 30.04 in    
Wind  
Wind Speed 8 mph (WNW)    
Max Wind Speed 21 mph    
Max Gust Speed 29 mph    
Visibility 10 miles    
Events      
T = Trace of Precipitation, MM = Missing Value Source: NWS Daily Summary

Daily Weather History Graph

Daily Weather History Graph

Search for Another Location

Airport or City:

Trip Planner

Search our weather history database for the weather conditions in past years. The results will help you decide how hot, cold, wet, or windy it might be!

Date:

Astronomy

May. 12, 2013 Rise Set
Actual Time 6:24 AM EDT 8:49 PM EDT
Civil Twilight 5:53 AM EDT 9:20 PM EDT
Nautical Twilight 5:14 AM EDT 9:59 PM EDT
Astronomical Twilight 4:31 AM EDT 10:42 PM EDT
Moon 8:18 AM EDT (5/12) 11:16 PM EDT (5/12)
Length of Visible Light 15h 27m
Length of Day
14h 25m
Waxing Crescent, 6% of the Moon is Illuminated
May 12
Waxing Crescent
May 18
First Quarter
May 25
Full
May 31
Last Quarter
Jun 8
New

Hourly Weather History & Observations

Time (EDT) Temp. Windchill Dew Point Humidity Pressure Visibility Wind Dir Wind Speed Gust Speed Precip Events Conditions
12:15 AM 37.4 °F 34.9 °F 32.0 °F 81% 29.98 in 10.0 mi West 3.5 mph - N/A   Clear
12:35 AM 37.4 °F 34.9 °F 32.0 °F 81% 29.99 in 10.0 mi West 3.5 mph - N/A   Clear
12:55 AM 37.4 °F - 32.0 °F 81% 29.99 in 10.0 mi Calm Calm - N/A   Clear
1:15 AM 37.4 °F 34.9 °F 32.0 °F 81% 29.99 in 10.0 mi WSW 3.5 mph - N/A   Clear
1:35 AM 37.4 °F 34.9 °F 32.0 °F 81% 29.99 in 10.0 mi WSW 3.5 mph - N/A   Clear
1:55 AM 37.4 °F 33.8 °F 32.0 °F 81% 29.99 in 10.0 mi SW 4.6 mph - N/A   Clear
2:15 AM 37.4 °F 32.8 °F 32.0 °F 81% 29.99 in 10.0 mi WSW 5.8 mph - N/A   Scattered Clouds
2:35 AM 37.4 °F 32.8 °F 32.0 °F 81% 29.98 in 10.0 mi SW 5.8 mph - N/A   Scattered Clouds
2:55 AM 37.4 °F 32.8 °F 32.0 °F 81% 29.98 in 10.0 mi SW 5.8 mph - N/A   Clear
3:35 AM 37.4 °F 32.1 °F 32.0 °F 81% 29.98 in 10.0 mi SW 6.9 mph - N/A   Clear
3:55 AM 37.4 °F 31.4 °F 32.0 °F 81% 29.98 in 10.0 mi WSW 8.1 mph - N/A   Clear
4:15 AM 37.4 °F 32.1 °F 32.0 °F 81% 29.98 in 10.0 mi West 6.9 mph - N/A   Clear
4:35 AM 37.4 °F 32.8 °F 32.0 °F 81% 29.98 in 10.0 mi West 5.8 mph - N/A   Clear
4:55 AM 35.6 °F 30.7 °F 32.0 °F 87% 29.98 in 10.0 mi West 5.8 mph - N/A   Clear
5:15 AM 37.4 °F 31.4 °F 32.0 °F 81% 29.98 in 10.0 mi West 8.1 mph - N/A   Clear
5:35 AM 37.4 °F 31.4 °F 32.0 °F 81% 29.98 in 10.0 mi West 8.1 mph - N/A   Clear
5:55 AM 37.4 °F 30.8 °F 32.0 °F 81% 29.98 in 10.0 mi West 9.2 mph - N/A   Clear
6:15 AM 35.6 °F 28.0 °F 30.2 °F 81% 29.99 in 10.0 mi West 10.4 mph - N/A   Clear
6:35 AM 35.6 °F 29.2 °F 30.2 °F 81% 29.99 in 10.0 mi West 8.1 mph - N/A   Clear
6:55 AM 35.6 °F 29.9 °F 30.2 °F 81% 30.00 in 10.0 mi West 6.9 mph - N/A   Clear
7:15 AM 37.4 °F 32.1 °F 32.0 °F 81% 30.00 in 10.0 mi West 6.9 mph - N/A   Clear
7:35 AM 37.4 °F 32.8 °F 32.0 °F 81% 30.00 in 10.0 mi West 5.8 mph - N/A   Clear
7:55 AM 39.2 °F 32.5 °F 32.0 °F 75% 30.00 in 10.0 mi West 10.4 mph 16.1 mph N/A   Clear
8:15 AM 41.0 °F 34.3 °F 32.0 °F 70% 30.01 in 10.0 mi West 11.5 mph 17.3 mph N/A   Clear
8:35 AM 41.0 °F 33.1 °F 32.0 °F 70% 30.01 in 10.0 mi WNW 15.0 mph 23.0 mph N/A   Clear
8:55 AM 41.0 °F 34.3 °F 30.2 °F 65% 30.01 in 10.0 mi WNW 11.5 mph 25.3 mph N/A   Scattered Clouds
9:15 AM 42.8 °F 35.1 °F 32.0 °F 66% 30.02 in 10.0 mi West 16.1 mph 23.0 mph N/A   Mostly Cloudy
9:35 AM 42.8 °F 35.8 °F 32.0 °F 66% 30.02 in 10.0 mi WNW 13.8 mph 24.2 mph N/A   Mostly Cloudy
9:55 AM 44.6 °F 37.8 °F 30.2 °F 57% 30.02 in 10.0 mi NW 15.0 mph 23.0 mph N/A   Mostly Cloudy
10:15 AM 44.6 °F 36.9 °F 30.2 °F 57% 30.03 in 10.0 mi WNW 18.4 mph 21.9 mph N/A   Mostly Cloudy
10:35 AM 44.6 °F 37.4 °F 28.4 °F 53% 30.03 in 10.0 mi WNW 16.1 mph 23.0 mph N/A   Mostly Cloudy
10:55 AM 42.8 °F 34.5 °F 30.2 °F 61% 30.04 in 10.0 mi NW 18.4 mph 25.3 mph N/A   Overcast
11:35 AM 44.6 °F 39.7 °F 30.2 °F 57% 30.05 in 10.0 mi WNW 9.2 mph - N/A   Overcast
11:55 AM 44.6 °F 39.2 °F 30.2 °F 57% 30.05 in 10.0 mi WNW 10.4 mph 17.3 mph N/A   Overcast
12:15 PM 46.4 °F 40.7 °F 30.2 °F 53% 30.06 in 10.0 mi WNW 12.7 mph 23.0 mph N/A   Mostly Cloudy
12:35 PM 46.4 °F 40.1 °F 28.4 °F 50% 30.06 in 10.0 mi WNW 15.0 mph 21.9 mph N/A   Mostly Cloudy
12:55 PM 46.4 °F 40.7 °F 30.2 °F 53% 30.06 in 10.0 mi WNW 12.7 mph 17.3 mph N/A   Mostly Cloudy
1:15 PM 48.2 °F - 28.4 °F 46% 30.06 in 10.0 mi West 18.4 mph 23.0 mph N/A   Mostly Cloudy
1:35 PM 46.4 °F 40.1 °F 28.4 °F 50% 30.06 in 10.0 mi West 15.0 mph 19.6 mph N/A   Overcast
1:55 PM 48.2 °F - 28.4 °F 46% 30.07 in 10.0 mi West 15.0 mph 24.2 mph N/A   Mostly Cloudy
2:15 PM 48.2 °F - 28.4 °F 46% 30.07 in 10.0 mi WNW 15.0 mph 21.9 mph N/A   Scattered Clouds
2:35 PM 46.4 °F 39.5 °F 28.4 °F 50% 30.08 in 10.0 mi West 17.3 mph 26.5 mph N/A   Mostly Cloudy
2:55 PM 50.0 °F - 28.4 °F 43% 30.08 in 10.0 mi WNW 20.7 mph 27.6 mph N/A   Mostly Cloudy
3:15 PM 48.2 °F - 28.4 °F 46% 30.08 in 10.0 mi WNW 17.3 mph 23.0 mph N/A   Mostly Cloudy
3:35 PM 50.0 °F - 28.4 °F 43% 30.08 in 10.0 mi West 15.0 mph 26.5 mph N/A   Mostly Cloudy
3:55 PM 48.2 °F - 28.4 °F 46% 30.08 in 10.0 mi WNW 15.0 mph 20.7 mph N/A   Mostly Cloudy
4:15 PM 50.0 °F - 28.4 °F 43% 30.08 in 10.0 mi West 17.3 mph 24.2 mph N/A   Overcast
4:35 PM 48.2 °F - 28.4 °F 46% 30.08 in 10.0 mi NW 13.8 mph 18.4 mph N/A   Overcast
4:55 PM 46.4 °F 40.7 °F 26.6 °F 46% 30.08 in 10.0 mi WNW 12.7 mph 24.2 mph N/A   Mostly Cloudy
5:15 PM 48.2 °F - 26.6 °F 43% 30.08 in 10.0 mi West 16.1 mph 28.8 mph N/A   Mostly Cloudy
5:35 PM 48.2 °F - 24.8 °F 40% 30.08 in 10.0 mi West 12.7 mph 21.9 mph N/A   Mostly Cloudy
5:55 PM 48.2 °F - 23.0 °F 37% 30.08 in 10.0 mi WNW 15.0 mph 20.7 mph N/A   Scattered Clouds
6:15 PM 48.2 °F - 24.8 °F 40% 30.08 in 10.0 mi WNW 16.1 mph 23.0 mph N/A   Scattered Clouds
6:35 PM 46.4 °F 40.7 °F 24.8 °F 43% 30.08 in 10.0 mi NW 12.7 mph 23.0 mph N/A   Scattered Clouds
6:55 PM 48.2 °F - 24.8 °F 40% 30.08 in 10.0 mi NW 15.0 mph 21.9 mph N/A   Scattered Clouds
7:15 PM 48.2 °F - 26.6 °F 43% 30.08 in 10.0 mi NW 11.5 mph 18.4 mph N/A   Scattered Clouds
7:35 PM 46.4 °F 41.9 °F 24.8 °F 43% 30.08 in 10.0 mi NW 9.2 mph 18.4 mph N/A   Clear
7:55 PM 46.4 °F 41.1 °F 24.8 °F 43% 30.08 in 10.0 mi WNW 11.5 mph 23.0 mph N/A   Clear
8:15 PM 46.4 °F 42.4 °F 24.8 °F 43% 30.08 in 10.0 mi NW 8.1 mph - N/A   Clear
8:35 PM 44.6 °F 40.7 °F 26.6 °F 49% 30.08 in 10.0 mi NW 6.9 mph - N/A   Clear
8:55 PM 44.6 °F 39.7 °F 24.8 °F 46% 30.08 in 10.0 mi NW 9.2 mph - N/A   Clear
9:15 PM 42.8 °F 40.1 °F 26.6 °F 53% 30.09 in 10.0 mi NNW 4.6 mph - N/A   Clear
9:35 PM 41.0 °F 38.0 °F 26.6 °F 57% 30.10 in 10.0 mi NW 4.6 mph - N/A   Clear
9:55 PM 41.0 °F 39.0 °F 28.4 °F 61% 30.11 in 10.0 mi NNW 3.5 mph - N/A   Clear
10:15 PM 39.2 °F 37.0 °F 28.4 °F 65% 30.12 in 10.0 mi NNW 3.5 mph - N/A   Clear
10:35 PM 39.2 °F 37.0 °F 28.4 °F 65% 30.12 in 10.0 mi North 3.5 mph - N/A   Clear
10:55 PM 37.4 °F - 28.4 °F 70% 30.13 in 10.0 mi Calm Calm - N/A   Clear
11:15 PM 37.4 °F - 30.2 °F 75% 30.12 in 10.0 mi Calm Calm - N/A   Clear
11:35 PM 35.6 °F - 30.2 °F 81% 30.12 in 10.0 mi Calm Calm - N/A   Clear
11:55 PM 35.6 °F - 30.2 °F 81% 30.12 in 10.0 mi Calm Calm - N/A   Clear